Time,TemperatureF,DewpointF,PressureIn,WindDirection,WindDirectionDegrees,WindSpeedMPH,WindSpeedGustMPH,Humidity,HourlyPrecipIn,Conditions,Clouds,dailyrainin,SolarRadiationWatts/m^2,SoftwareType,DateUTC
2013-07-20 00:02:00,73.6,65.9,29.91,NNE,33,4.0,5.0,77,0.00,,CLR,0.00,0.00,VWS V14.01,2013-07-20 05:02:00,
2013-07-20 00:07:00,73.3,65.7,29.91,NE,40,2.0,4.0,77,0.00,,CLR,0.00,0.00,VWS V14.01,2013-07-20 05:07:00,
2013-07-20 00:12:00,73.2,65.6,29.91,NNE,33,3.0,3.0,77,0.00,,CLR,0.00,0.00,VWS V14.01,2013-07-20 05:12:00,
2013-07-20 00:17:00,73.0,65.4,29.91,NNE,29,0.0,3.0,77,0.00,,CLR,0.00,0.00,VWS V14.01,2013-07-20 05:17:00,
2013-07-20 00:22:00,72.7,65.4,29.91,North,10,3.0,5.0,78,0.00,,CLR,0.00,0.00,VWS V14.01,2013-07-20 05:22:00,
2013-07-20 00:27:00,72.6,65.3,29.91,NNE,20,4.0,6.0,78,0.00,,CLR,0.00,0.00,VWS V14.01,2013-07-20 05:27:00,
2013-07-20 00:32:00,72.6,65.3,29.91,NNE,22,5.0,5.0,78,0.00,,CLR,0.00,0.00,VWS V14.01,2013-07-20 05:32:00,
2013-07-20 00:37:00,72.5,65.3,29.91,NE,43,1.0,3.0,78,0.00,,CLR,0.00,0.00,VWS V14.01,2013-07-20 05:37:00,
2013-07-20 00:42:00,72.3,65.1,29.91,NNE,24,3.0,4.0,78,0.00,,CLR,0.00,0.00,VWS V14.01,2013-07-20 05:42:00,
2013-07-20 00:47:00,72.2,65.3,29.91,NNE,18,0.0,2.0,79,0.00,,CLR,0.00,0.00,VWS V14.01,2013-07-20 05:47:00,
2013-07-20 00:52:00,72.0,65.5,29.92,NNE,16,0.0,3.0,80,0.00,,CLR,0.00,0.00,VWS V14.01,2013-07-20 05:52:00,
2013-07-20 00:57:00,71.8,65.3,29.92,NNE,16,0.0,1.0,80,0.00,,CLR,0.00,0.00,VWS V14.01,2013-07-20 05:57:00,
2013-07-20 01:02:00,71.5,65.0,29.92,NNE,16,0.0,2.0,80,0.00,,CLR,0.00,0.00,VWS V14.01,2013-07-20 06:02:00,
2013-07-20 01:07:00,71.2,65.1,29.92,NNE,16,2.0,2.0,81,0.00,,CLR,0.00,0.00,VWS V14.01,2013-07-20 06:07:00,
2013-07-20 01:12:00,70.7,64.9,29.92,NNE,16,1.0,2.0,82,0.00,,CLR,0.00,0.00,VWS V14.01,2013-07-20 06:12:00,
2013-07-20 01:18:00,70.3,64.6,29.92,NNE,17,1.0,3.0,82,0.00,,CLR,0.00,0.00,VWS V14.01,2013-07-20 06:18:00,
2013-07-20 01:23:00,70.2,64.8,29.93,North,349,1.0,2.0,83,0.00,,CLR,0.00,0.00,VWS V14.01,2013-07-20 06:23:00,
2013-07-20 01:28:00,70.1,64.4,29.92,NNE,27,1.0,2.0,82,0.00,,CLR,0.00,0.00,VWS V14.01,2013-07-20 06:28:00,
2013-07-20 01:33:00,70.0,64.3,29.92,North,10,1.0,2.0,82,0.00,,CLR,0.00,0.00,VWS V14.01,2013-07-20 06:33:00,
2013-07-20 01:38:00,69.8,64.1,29.92,North,10,0.0,1.0,82,0.00,,CLR,0.00,0.00,VWS V14.01,2013-07-20 06:38:00,
2013-07-20 01:43:00,69.7,64.0,29.92,NNE,27,1.0,2.0,82,0.00,,CLR,0.00,0.00,VWS V14.01,2013-07-20 06:43:00,
2013-07-20 01:48:00,69.4,64.0,29.93,NNE,27,1.0,2.0,83,0.00,,CLR,0.00,0.00,VWS V14.01,2013-07-20 06:48:00,
2013-07-20 01:53:00,69.3,63.9,29.93,NNE,30,1.0,3.0,83,0.00,,CLR,0.00,0.00,VWS V14.01,2013-07-20 06:53:00,
2013-07-20 01:58:00,69.2,63.8,29.92,NNE,30,0.0,3.0,83,0.00,,CLR,0.00,0.00,VWS V14.01,2013-07-20 06:58:00,
2013-07-20 02:03:00,68.9,63.5,29.92,NNE,30,0.0,1.0,83,0.00,,CLR,0.00,0.00,VWS V14.01,2013-07-20 07:03:00,
2013-07-20 02:08:00,68.8,63.4,29.92,NNE,29,0.0,3.0,83,0.00,,CLR,0.00,0.00,VWS V14.01,2013-07-20 07:08:00,
2013-07-20 02:13:00,68.8,63.4,29.92,NNE,29,0.0,3.0,83,0.00,,CLR,0.00,0.00,VWS V14.01,2013-07-20 07:13:00,
2013-07-20 02:18:00,68.7,63.3,29.92,NNE,29,0.0,2.0,83,0.00,,CLR,0.00,0.00,VWS V14.01,2013-07-20 07:18:00,
2013-07-20 02:23:00,68.5,63.5,29.92,NNE,29,0.0,1.0,84,0.00,,CLR,0.00,0.00,VWS V14.01,2013-07-20 07:23:00,
2013-07-20 02:28:00,68.1,63.1,29.92,NNE,29,0.0,1.0,84,0.00,,CLR,0.00,0.00,VWS V14.01,2013-07-20 07:28:00,
2013-07-20 02:33:00,67.9,63.2,29.92,NNE,29,0.0,1.0,85,0.00,,CLR,0.00,0.00,VWS V14.01,2013-07-20 07:33:00,
2013-07-20 02:38:00,67.5,62.8,29.92,NNE,29,0.0,0.0,85,0.00,,CLR,0.00,0.00,VWS V14.01,2013-07-20 07:38:00,
2013-07-20 02:43:00,67.3,63.0,29.92,NNE,29,0.0,0.0,86,0.00,,CLR,0.00,0.00,VWS V14.01,2013-07-20 07:43:00,
2013-07-20 02:48:00,67.1,62.8,29.92,NNE,29,0.0,0.0,86,0.00,,CLR,0.00,0.00,VWS V14.01,2013-07-20 07:48:00,
2013-07-20 02:53:00,66.8,62.8,29.92,NNE,29,0.0,0.0,87,0.00,,CLR,0.00,0.00,VWS V14.01,2013-07-20 07:53:00,
2013-07-20 02:58:00,66.6,62.6,29.92,NNE,29,0.0,0.0,87,0.00,,CLR,0.00,0.00,VWS V14.01,2013-07-20 07:58:00,
2013-07-20 03:03:00,66.4,62.4,29.92,NNE,29,0.0,0.0,87,0.00,,CLR,0.00,0.00,VWS V14.01,2013-07-20 08:03:00,
2013-07-20 03:08:00,66.4,62.4,29.92,NNE,29,0.0,0.0,87,0.00,,CLR,0.00,0.00,VWS V14.01,2013-07-20 08:08:00,
2013-07-20 03:13:00,66.3,62.3,29.92,NNE,29,0.0,0.0,87,0.00,,CLR,0.00,0.00,VWS V14.01,2013-07-20 08:13:00,
2013-07-20 03:18:00,66.2,62.2,29.92,NNE,29,0.0,0.0,87,0.00,,CLR,0.00,0.00,VWS V14.01,2013-07-20 08:18:00,
2013-07-20 03:23:00,66.0,62.0,29.92,NNE,29,0.0,0.0,87,0.00,,CLR,0.00,0.00,VWS V14.01,2013-07-20 08:23:00,
2013-07-20 03:28:00,65.7,61.7,29.92,NNE,29,0.0,0.0,87,0.00,,CLR,0.00,0.00,VWS V14.01,2013-07-20 08:28:00,
2013-07-20 03:33:00,65.4,61.8,29.91,NNE,27,0.0,0.0,88,0.00,,CLR,0.00,0.00,VWS V14.01,2013-07-20 08:33:00,
2013-07-20 03:38:00,65.2,61.6,29.91,NNE,27,0.0,0.0,88,0.00,,CLR,0.00,0.00,VWS V14.01,2013-07-20 08:38:00,
2013-07-20 03:43:00,65.1,61.5,29.91,NE,37,1.0,3.0,88,0.00,,CLR,0.00,0.00,VWS V14.01,2013-07-20 08:43:00,
2013-07-20 03:48:00,65.1,61.5,29.91,NNE,32,3.0,4.0,88,0.00,,CLR,0.00,0.00,VWS V14.01,2013-07-20 08:48:00,
2013-07-20 03:53:00,65.2,61.9,29.92,NE,35,0.0,1.0,89,0.00,,CLR,0.00,0.00,VWS V14.01,2013-07-20 08:53:00,
2013-07-20 03:58:00,65.4,61.8,29.92,NE,35,0.0,0.0,88,0.00,,CLR,0.00,0.00,VWS V14.01,2013-07-20 08:58:00,
2013-07-20 04:03:00,65.7,61.7,29.92,NE,34,1.0,3.0,87,0.00,,CLR,0.00,0.00,VWS V14.01,2013-07-20 09:03:00,
2013-07-20 04:08:00,65.1,61.1,29.92,NE,34,0.0,0.0,87,0.00,,CLR,0.00,0.00,VWS V14.01,2013-07-20 09:08:00,
2013-07-20 04:13:00,64.9,61.3,29.92,NE,34,0.0,0.0,88,0.00,,CLR,0.00,0.00,VWS V14.01,2013-07-20 09:13:00,
2013-07-20 04:18:00,64.8,61.2,29.92,NE,34,0.0,0.0,88,0.00,,CLR,0.00,0.00,VWS V14.01,2013-07-20 09:18:00,
2013-07-20 04:23:00,64.7,61.1,29.92,NE,34,0.0,0.0,88,0.00,,CLR,0.00,0.00,VWS V14.01,2013-07-20 09:23:00,
2013-07-20 04:28:00,64.7,61.4,29.92,NE,34,0.0,0.0,89,0.00,,CLR,0.00,0.00,VWS V14.01,2013-07-20 09:28:00,
2013-07-20 04:33:00,64.5,61.2,29.92,NE,34,0.0,0.0,89,0.00,,CLR,0.00,0.00,VWS V14.01,2013-07-20 09:33:00,
2013-07-20 04:38:00,64.3,61.0,29.92,NE,34,0.0,0.0,89,0.00,,CLR,0.00,0.00,VWS V14.01,2013-07-20 09:38:00,
2013-07-20 04:43:00,64.1,60.8,29.92,NE,34,0.0,0.0,89,0.00,,CLR,0.00,0.00,VWS V14.01,2013-07-20 09:43:00,
2013-07-20 04:48:00,63.9,60.6,29.92,NE,34,0.0,0.0,89,0.00,,CLR,0.00,0.00,VWS V14.01,2013-07-20 09:48:00,
2013-07-20 04:53:00,63.8,60.5,29.92,NE,34,0.0,0.0,89,0.00,,CLR,0.00,0.00,VWS V14.01,2013-07-20 09:53:00,
2013-07-20 04:58:00,63.7,60.7,29.92,NE,34,0.0,0.0,90,0.00,,CLR,0.00,0.00,VWS V14.01,2013-07-20 09:58:00,
2013-07-20 05:03:00,63.5,60.5,29.92,NE,34,0.0,0.0,90,0.00,,CLR,0.00,0.00,VWS V14.01,2013-07-20 10:03:00,
2013-07-20 05:08:00,63.4,60.4,29.92,NE,34,0.0,0.0,90,0.00,,CLR,0.00,0.00,VWS V14.01,2013-07-20 10:08:00,
2013-07-20 05:13:00,63.3,60.3,29.92,NE,34,0.0,0.0,90,0.00,,CLR,0.00,0.00,VWS V14.01,2013-07-20 10:13:00,
2013-07-20 05:18:00,63.1,60.1,29.92,NE,34,0.0,0.0,90,0.00,,CLR,0.00,0.00,VWS V14.01,2013-07-20 10:18:00,
2013-07-20 05:23:00,63.1,60.4,29.93,NE,34,0.0,0.0,91,0.00,,CLR,0.00,0.00,VWS V14.01,2013-07-20 10:23:00,
2013-07-20 05:28:00,63.0,60.3,29.93,NE,34,0.0,0.0,91,0.00,,CLR,0.00,0.00,VWS V14.01,2013-07-20 10:28:00,
2013-07-20 05:33:00,62.9,60.2,29.93,NE,34,0.0,0.0,91,0.00,,CLR,0.00,0.00,VWS V14.01,2013-07-20 10:33:00,
2013-07-20 05:38:00,62.8,60.1,29.92,NE,34,0.0,0.0,91,0.00,,CLR,0.00,0.00,VWS V14.01,2013-07-20 10:38:00,
2013-07-20 05:43:00,62.7,60.0,29.93,NE,34,0.0,0.0,91,0.00,,CLR,0.00,0.00,VWS V14.01,2013-07-20 10:43:00,
2013-07-20 05:48:00,62.6,59.9,29.93,NE,34,0.0,0.0,91,0.00,,CLR,0.00,0.00,VWS V14.01,2013-07-20 10:48:00,
2013-07-20 05:53:00,62.4,59.7,29.92,NE,34,0.0,0.0,91,0.00,,CLR,0.00,0.00,VWS V14.01,2013-07-20 10:53:00,
2013-07-20 05:58:00,62.2,59.5,29.92,NE,34,0.0,0.0,91,0.00,,CLR,0.00,5.00,VWS V14.01,2013-07-20 10:58:00,
2013-07-20 06:03:00,62.1,59.5,29.92,NE,34,0.0,0.0,91,0.00,,CLR,0.00,7.00,VWS V14.01,2013-07-20 11:03:00,
2013-07-20 06:08:00,62.1,59.8,29.92,NE,34,0.0,0.0,92,0.00,,CLR,0.00,12.00,VWS V14.01,2013-07-20 11:08:00,
2013-07-20 06:13:00,62.0,59.7,29.92,NE,34,0.0,0.0,92,0.00,,CLR,0.00,16.00,VWS V14.01,2013-07-20 11:13:00,
2013-07-20 06:18:00,62.2,59.8,29.92,NE,34,0.0,0.0,92,0.00,,CLR,0.00,18.00,VWS V14.01,2013-07-20 11:18:00,
2013-07-20 06:23:00,61.8,59.5,29.92,NE,34,0.0,0.0,92,0.00,,CLR,0.00,21.00,VWS V14.01,2013-07-20 11:23:00,
2013-07-20 06:28:00,61.5,59.2,29.92,NE,34,0.0,0.0,92,0.00,,CLR,0.00,23.00,VWS V14.01,2013-07-20 11:28:00,
2013-07-20 06:33:00,61.6,59.3,29.92,NE,34,0.0,0.0,92,0.00,,CLR,0.00,21.00,VWS V14.01,2013-07-20 11:33:00,
2013-07-20 06:39:00,61.8,59.8,29.92,NE,34,0.0,0.0,93,0.00,,CLR,0.00,26.00,VWS V14.01,2013-07-20 11:39:00,
2013-07-20 06:44:00,61.9,59.9,29.92,NE,34,0.0,0.0,93,0.00,,CLR,0.00,58.00,VWS V14.01,2013-07-20 11:44:00,
2013-07-20 06:49:00,62.1,60.1,29.93,NE,34,0.0,0.0,93,0.00,,CLR,0.00,65.00,VWS V14.01,2013-07-20 11:49:00,
2013-07-20 06:54:00,62.3,60.2,29.93,NE,34,0.0,0.0,93,0.00,,CLR,0.00,81.00,VWS V14.01,2013-07-20 11:54:00,
2013-07-20 06:59:00,62.5,60.5,29.93,NE,34,0.0,0.0,93,0.00,,CLR,0.00,97.00,VWS V14.01,2013-07-20 11:59:00,
2013-07-20 07:04:00,62.9,60.5,29.93,NNE,27,0.0,0.0,92,0.00,,CLR,0.00,111.00,VWS V14.01,2013-07-20 12:04:00,
2013-07-20 07:09:00,63.3,60.9,29.93,NNE,26,0.0,0.0,92,0.00,,CLR,0.00,127.00,VWS V14.01,2013-07-20 12:09:00,
2013-07-20 07:14:00,63.8,61.4,29.93,NNE,26,0.0,0.0,92,0.00,,CLR,0.00,144.00,VWS V14.01,2013-07-20 12:14:00,
2013-07-20 07:19:00,64.4,62.0,29.93,NNE,31,0.0,0.0,92,0.00,,CLR,0.00,165.00,VWS V14.01,2013-07-20 12:19:00,
2013-07-20 07:24:00,65.3,62.3,29.93,NE,37,3.0,5.0,90,0.00,,CLR,0.00,146.00,VWS V14.01,2013-07-20 12:24:00,
2013-07-20 07:29:00,66.1,62.8,29.93,NNE,33,1.0,4.0,89,0.00,,CLR,0.00,93.00,VWS V14.01,2013-07-20 12:29:00,
2013-07-20 07:34:00,67.0,63.3,29.93,NE,34,2.0,3.0,88,0.00,,CLR,0.00,88.00,VWS V14.01,2013-07-20 12:34:00,
2013-07-20 07:39:00,67.8,63.8,29.93,NE,34,0.0,1.0,87,0.00,,CLR,0.00,165.00,VWS V14.01,2013-07-20 12:39:00,
2013-07-20 07:44:00,68.5,63.8,29.93,NE,34,0.0,2.0,85,0.00,,CLR,0.00,188.00,VWS V14.01,2013-07-20 12:44:00,
2013-07-20 07:49:00,69.1,64.1,29.93,NE,56,3.0,4.0,84,0.00,,CLR,0.00,60.00,VWS V14.01,2013-07-20 12:49:00,
2013-07-20 07:54:00,69.5,64.5,29.93,NE,37,2.0,5.0,84,0.00,,CLR,0.00,67.00,VWS V14.01,2013-07-20 12:54:00,
2013-07-20 07:59:00,69.9,64.5,29.93,ENE,63,4.0,4.0,83,0.00,,CLR,0.00,86.00,VWS V14.01,2013-07-20 12:59:00,
2013-07-20 08:04:00,70.2,64.1,29.93,ENE,63,0.0,1.0,81,0.00,,CLR,0.00,132.00,VWS V14.01,2013-07-20 13:04:00,
2013-07-20 08:09:00,70.6,64.8,29.94,NE,39,0.0,4.0,82,0.00,,CLR,0.00,63.00,VWS V14.01,2013-07-20 13:09:00,
2013-07-20 08:14:00,71.0,64.2,29.94,NE,45,2.0,4.0,79,0.00,,CLR,0.00,125.00,VWS V14.01,2013-07-20 13:14:00,
2013-07-20 08:19:00,71.5,65.0,29.94,NE,44,1.0,6.0,80,0.00,,CLR,0.00,65.00,VWS V14.01,2013-07-20 13:19:00,
2013-07-20 08:24:00,72.0,65.5,29.94,NE,44,1.0,4.0,80,0.00,,CLR,0.00,76.00,VWS V14.01,2013-07-20 13:24:00,
2013-07-20 08:29:00,72.4,65.5,29.94,NE,53,2.0,3.0,79,0.00,,CLR,0.00,67.00,VWS V14.01,2013-07-20 13:29:00,
2013-07-20 08:34:00,72.7,65.4,29.94,NNE,31,3.0,5.0,78,0.00,,CLR,0.00,86.00,VWS V14.01,2013-07-20 13:34:00,
2013-07-20 08:39:00,73.0,65.0,29.94,East,79,2.0,4.0,76,0.00,,CLR,0.00,141.00,VWS V14.01,2013-07-20 13:39:00,
2013-07-20 08:44:00,73.3,65.7,29.95,ENE,72,2.0,5.0,77,0.00,,CLR,0.00,72.00,VWS V14.01,2013-07-20 13:44:00,
2013-07-20 08:49:00,73.7,65.7,29.94,NNE,22,7.0,7.0,76,0.00,,CLR,0.00,109.00,VWS V14.01,2013-07-20 13:49:00,
2013-07-20 08:54:00,73.8,65.0,29.94,East,81,4.0,5.0,74,0.00,,CLR,0.00,90.00,VWS V14.01,2013-07-20 13:54:00,
2013-07-20 08:59:00,74.1,65.7,29.94,ENE,78,1.0,4.0,75,0.00,,CLR,0.00,72.00,VWS V14.01,2013-07-20 13:59:00,
2013-07-20 09:04:00,74.4,66.0,29.94,East,81,2.0,6.0,75,0.00,,CLR,0.00,162.00,VWS V14.01,2013-07-20 14:04:00,
2013-07-20 09:09:00,74.6,65.4,29.94,ENE,60,2.0,5.0,73,0.00,,CLR,0.00,526.00,VWS V14.01,2013-07-20 14:09:00,
2013-07-20 09:14:00,75.3,66.4,29.94,ESE,104,5.0,6.0,74,0.00,,CLR,0.00,541.00,VWS V14.01,2013-07-20 14:14:00,
2013-07-20 09:19:00,75.7,66.0,29.95,ENE,70,1.0,5.0,72,0.00,,CLR,0.00,555.00,VWS V14.01,2013-07-20 14:19:00,
2013-07-20 09:24:00,75.9,66.2,29.95,East,88,2.0,4.0,72,0.00,,CLR,0.00,557.00,VWS V14.01,2013-07-20 14:24:00,
2013-07-20 09:29:00,76.3,67.0,29.95,East,89,1.0,4.0,73,0.00,,CLR,0.00,547.00,VWS V14.01,2013-07-20 14:29:00,
2013-07-20 09:34:00,76.9,66.4,29.95,East,93,2.0,2.0,70,0.00,,CLR,0.00,526.00,VWS V14.01,2013-07-20 14:34:00,
2013-07-20 09:39:00,77.3,66.3,29.95,East,85,2.0,3.0,69,0.00,,CLR,0.00,504.00,VWS V14.01,2013-07-20 14:39:00,
2013-07-20 09:44:00,77.9,67.3,29.95,ENE,66,0.0,3.0,70,0.00,,CLR,0.00,497.00,VWS V14.01,2013-07-20 14:44:00,
2013-07-20 09:49:00,78.4,68.2,29.96,East,95,2.0,3.0,71,0.00,,CLR,0.00,504.00,VWS V14.01,2013-07-20 14:49:00,
2013-07-20 09:54:00,78.0,66.2,29.96,East,92,3.0,4.0,67,0.00,,CLR,0.00,520.00,VWS V14.01,2013-07-20 14:54:00,
2013-07-20 09:59:00,78.5,67.1,29.96,ENE,72,1.0,3.0,68,0.00,,CLR,0.00,536.00,VWS V14.01,2013-07-20 14:59:00,
2013-07-20 10:04:00,78.8,66.1,29.96,ENE,67,0.0,3.0,65,0.00,,CLR,0.00,506.00,VWS V14.01,2013-07-20 15:04:00,
2013-07-20 10:09:00,78.8,66.5,29.97,ENE,70,0.0,1.0,66,0.00,,CLR,0.00,547.00,VWS V14.01,2013-07-20 15:09:00,
2013-07-20 10:14:00,78.8,66.1,29.98,ENE,74,0.0,2.0,65,0.00,,CLR,0.00,568.00,VWS V14.01,2013-07-20 15:14:00,
2013-07-20 10:19:00,79.6,66.4,29.98,NE,37,2.0,3.0,64,0.00,,CLR,0.00,617.00,VWS V14.01,2013-07-20 15:19:00,
2013-07-20 10:24:00,79.8,66.1,29.98,NE,44,1.0,4.0,63,0.00,,CLR,0.00,636.00,VWS V14.01,2013-07-20 15:24:00,
2013-07-20 10:29:00,80.3,66.1,29.98,ENE,65,3.0,5.0,62,0.00,,CLR,0.00,668.00,VWS V14.01,2013-07-20 15:29:00,
2013-07-20 10:34:00,80.4,67.1,29.99,NNW,345,5.0,5.0,64,0.00,,CLR,0.00,647.00,VWS V14.01,2013-07-20 15:34:00,
2013-07-20 10:39:00,80.8,67.5,29.99,NNW,338,2.0,4.0,64,0.00,,CLR,0.00,629.00,VWS V14.01,2013-07-20 15:39:00,
2013-07-20 10:44:00,80.6,68.2,29.98,North,10,0.0,2.0,66,0.00,,CLR,0.00,613.00,VWS V14.01,2013-07-20 15:44:00,
2013-07-20 10:49:00,81.4,68.1,29.98,NNE,24,3.0,4.0,64,0.00,,CLR,0.00,605.00,VWS V14.01,2013-07-20 15:49:00,
2013-07-20 10:55:00,82.0,67.7,29.98,NNE,22,4.0,6.0,62,0.00,,CLR,0.00,610.00,VWS V14.01,2013-07-20 15:55:00,
2013-07-20 11:00:00,82.1,68.7,29.98,North,355,5.0,6.0,64,0.00,,CLR,0.00,626.00,VWS V14.01,2013-07-20 16:00:00,
2013-07-20 11:05:00,81.4,66.2,29.98,WSW,254,4.0,4.0,60,0.00,,CLR,0.00,649.00,VWS V14.01,2013-07-20 16:05:00,
2013-07-20 11:10:00,81.4,67.1,29.98,West,261,0.0,2.0,62,0.00,,CLR,0.00,679.00,VWS V14.01,2013-07-20 16:10:00,
2013-07-20 11:15:00,82.1,67.3,29.98,North,10,3.0,5.0,61,0.00,,CLR,0.00,719.00,VWS V14.01,2013-07-20 16:15:00,
2013-07-20 11:20:00,82.5,67.2,29.98,NE,34,3.0,6.0,60,0.00,,CLR,0.00,770.00,VWS V14.01,2013-07-20 16:20:00,
2013-07-20 11:25:00,82.3,67.0,29.98,NNE,20,2.0,5.0,60,0.00,,CLR,0.00,816.00,VWS V14.01,2013-07-20 16:25:00,
2013-07-20 11:30:00,81.7,67.4,29.98,NW,311,0.0,1.0,62,0.00,,CLR,0.00,846.00,VWS V14.01,2013-07-20 16:30:00,
2013-07-20 11:35:00,81.5,65.3,29.97,WNW,299,0.0,1.0,58,0.00,,CLR,0.00,867.00,VWS V14.01,2013-07-20 16:35:00,
2013-07-20 11:40:00,82.0,66.8,29.97,WSW,243,0.0,3.0,60,0.00,,CLR,0.00,872.00,VWS V14.01,2013-07-20 16:40:00,
2013-07-20 11:45:00,82.7,69.8,29.97,SSW,196,4.0,5.0,65,0.00,,CLR,0.00,877.00,VWS V14.01,2013-07-20 16:45:00,
2013-07-20 11:50:00,82.7,67.4,29.97,SSE,147,0.0,3.0,60,0.00,,CLR,0.00,877.00,VWS V14.01,2013-07-20 16:50:00,
2013-07-20 11:55:00,82.1,65.4,29.97,East,88,0.0,3.0,57,0.00,,CLR,0.00,881.00,VWS V14.01,2013-07-20 16:55:00,
2013-07-20 12:00:00,82.6,67.3,29.97,North,5,2.0,6.0,60,0.00,,CLR,0.00,889.00,VWS V14.01,2013-07-20 17:00:00,
2013-07-20 12:05:00,83.3,67.0,29.97,NNE,14,5.0,7.0,58,0.00,,CLR,0.00,900.00,VWS V14.01,2013-07-20 17:05:00,
2013-07-20 12:10:00,82.9,65.6,29.97,NNE,29,1.0,6.0,56,0.00,,CLR,0.00,905.00,VWS V14.01,2013-07-20 17:10:00,
2013-07-20 12:15:00,83.3,67.0,29.97,NE,37,4.0,6.0,58,0.00,,CLR,0.00,911.00,VWS V14.01,2013-07-20 17:15:00,
2013-07-20 12:20:00,83.0,64.7,29.98,ENE,60,0.0,3.0,54,0.00,,CLR,0.00,921.00,VWS V14.01,2013-07-20 17:20:00,
2013-07-20 12:25:00,82.7,64.4,29.98,ENE,70,3.0,3.0,54,0.00,,CLR,0.00,928.00,VWS V14.01,2013-07-20 17:25:00,
2013-07-20 12:30:00,82.7,65.4,29.98,ENE,74,2.0,2.0,56,0.00,,CLR,0.00,928.00,VWS V14.01,2013-07-20 17:30:00,
2013-07-20 12:35:00,82.7,64.9,29.97,ENE,74,0.0,1.0,55,0.00,,CLR,0.00,928.00,VWS V14.01,2013-07-20 17:35:00,
2013-07-20 12:40:00,83.6,67.3,29.98,NNW,346,2.0,4.0,58,0.00,,CLR,0.00,932.00,VWS V14.01,2013-07-20 17:40:00,
2013-07-20 12:45:00,83.4,65.6,29.98,North,352,1.0,2.0,55,0.00,,CLR,0.00,932.00,VWS V14.01,2013-07-20 17:45:00,
2013-07-20 12:50:00,84.2,67.8,29.98,North,360,2.0,3.0,58,0.00,,CLR,0.00,940.00,VWS V14.01,2013-07-20 17:50:00,
2013-07-20 12:55:00,83.5,66.7,29.98,SW,236,4.0,4.0,57,0.00,,CLR,0.00,939.00,VWS V14.01,2013-07-20 17:55:00,
2013-07-20 13:00:00,83.6,65.7,29.97,WSW,247,5.0,5.0,55,0.00,,CLR,0.00,933.00,VWS V14.01,2013-07-20 18:00:00,
2013-07-20 13:05:00,83.7,66.9,29.97,WSW,238,3.0,5.0,57,0.00,,CLR,0.00,942.00,VWS V14.01,2013-07-20 18:05:00,
2013-07-20 13:10:00,84.4,69.5,29.97,WSW,247,10.0,11.0,61,0.00,,CLR,0.00,940.00,VWS V14.01,2013-07-20 18:10:00,
2013-07-20 13:15:00,84.5,70.1,29.97,SSW,200,7.0,9.0,62,0.00,,CLR,0.00,937.00,VWS V14.01,2013-07-20 18:15:00,
2013-07-20 13:21:00,84.6,68.7,29.97,SSW,205,5.0,7.0,59,0.00,,CLR,0.00,937.00,VWS V14.01,2013-07-20 18:21:00,
2013-07-20 13:26:00,85.0,69.6,29.96,South,189,7.0,10.0,60,0.00,,CLR,0.00,939.00,VWS V14.01,2013-07-20 18:26:00,
2013-07-20 13:31:00,85.1,68.2,29.96,SSW,198,5.0,11.0,57,0.00,,CLR,0.00,940.00,VWS V14.01,2013-07-20 18:31:00,
2013-07-20 13:36:00,84.9,69.5,29.95,South,176,3.0,6.0,60,0.00,,CLR,0.00,940.00,VWS V14.01,2013-07-20 18:36:00,
2013-07-20 13:41:00,85.2,68.8,29.95,South,180,2.0,5.0,58,0.00,,CLR,0.00,940.00,VWS V14.01,2013-07-20 18:41:00,
2013-07-20 13:46:00,84.9,66.4,29.95,South,179,4.0,5.0,54,0.00,,CLR,0.00,940.00,VWS V14.01,2013-07-20 18:46:00,
2013-07-20 13:51:00,84.7,68.3,29.95,SSW,201,3.0,3.0,58,0.00,,CLR,0.00,940.00,VWS V14.01,2013-07-20 18:51:00,
2013-07-20 13:56:00,84.3,68.9,29.94,SSE,166,1.0,3.0,60,0.00,,CLR,0.00,937.00,VWS V14.01,2013-07-20 18:56:00,
2013-07-20 14:01:00,84.2,65.8,29.94,East,88,1.0,3.0,54,0.00,,CLR,0.00,935.00,VWS V14.01,2013-07-20 19:01:00,
2013-07-20 14:06:00,84.9,67.5,29.94,ENE,70,2.0,2.0,56,0.00,,CLR,0.00,933.00,VWS V14.01,2013-07-20 19:06:00,
2013-07-20 14:11:00,85.1,68.2,29.94,East,92,1.0,2.0,57,0.00,,CLR,0.00,928.00,VWS V14.01,2013-07-20 19:11:00,
2013-07-20 14:16:00,85.3,65.1,29.93,East,91,2.0,2.0,51,0.00,,CLR,0.00,925.00,VWS V14.01,2013-07-20 19:16:00,
2013-07-20 14:22:00,84.8,65.8,29.93,East,86,0.0,1.0,53,0.00,,CLR,0.00,921.00,VWS V14.01,2013-07-20 19:22:00,
2013-07-20 14:27:00,85.7,70.2,29.93,South,180,5.0,10.0,60,0.00,,CLR,0.00,916.00,VWS V14.01,2013-07-20 19:27:00,
2013-07-20 14:32:00,85.9,68.9,29.93,SSW,202,7.0,10.0,57,0.00,,CLR,0.00,911.00,VWS V14.01,2013-07-20 19:32:00,
2013-07-20 14:37:00,85.7,69.2,29.93,SSW,203,4.0,9.0,58,0.00,,CLR,0.00,902.00,VWS V14.01,2013-07-20 19:37:00,
2013-07-20 14:42:00,85.8,70.3,29.93,South,190,2.0,6.0,60,0.00,,CLR,0.00,893.00,VWS V14.01,2013-07-20 19:42:00,
2013-07-20 14:47:00,85.7,68.7,29.93,SSW,193,6.0,7.0,57,0.00,,CLR,0.00,884.00,VWS V14.01,2013-07-20 19:47:00,
2013-07-20 14:52:00,86.1,70.1,29.93,South,191,10.0,10.0,59,0.00,,CLR,0.00,877.00,VWS V14.01,2013-07-20 19:52:00,
2013-07-20 14:57:00,86.0,69.0,29.93,SSW,195,4.0,9.0,57,0.00,,CLR,0.00,868.00,VWS V14.01,2013-07-20 19:57:00,
2013-07-20 15:03:00,85.8,68.3,29.94,SSW,213,6.0,6.0,56,0.00,,CLR,0.00,860.00,VWS V14.01,2013-07-20 20:03:00,
2013-07-20 15:08:00,85.9,68.9,29.94,SSW,210,2.0,5.0,57,0.00,,CLR,0.00,853.00,VWS V14.01,2013-07-20 20:08:00,
2013-07-20 15:13:00,86.4,68.9,29.94,SSW,197,3.0,5.0,56,0.00,,CLR,0.00,844.00,VWS V14.01,2013-07-20 20:13:00,
2013-07-20 15:18:00,85.7,65.5,29.94,WSW,241,0.0,3.0,51,0.00,,CLR,0.00,835.00,VWS V14.01,2013-07-20 20:18:00,
2013-07-20 15:23:00,85.7,66.1,29.94,WSW,239,4.0,4.0,52,0.00,,CLR,0.00,826.00,VWS V14.01,2013-07-20 20:23:00,
2013-07-20 15:28:00,86.1,68.1,29.94,South,180,2.0,6.0,55,0.00,,CLR,0.00,816.00,VWS V14.01,2013-07-20 20:28:00,
2013-07-20 15:34:00,86.6,67.4,29.93,ESE,122,1.0,4.0,53,0.00,,CLR,0.00,807.00,VWS V14.01,2013-07-20 20:34:00,
2013-07-20 15:39:00,86.3,66.6,29.93,SE,133,0.0,1.0,52,0.00,,CLR,0.00,796.00,VWS V14.01,2013-07-20 20:39:00,
2013-07-20 15:44:00,86.0,66.3,29.93,SSE,150,3.0,3.0,52,0.00,,CLR,0.00,786.00,VWS V14.01,2013-07-20 20:44:00,
2013-07-20 15:49:00,85.6,64.8,29.92,WSW,252,5.0,5.0,50,0.00,,CLR,0.00,779.00,VWS V14.01,2013-07-20 20:49:00,
2013-07-20 15:54:00,85.9,65.1,29.92,WSW,254,3.0,5.0,50,0.00,,CLR,0.00,766.00,VWS V14.01,2013-07-20 20:54:00,
2013-07-20 15:59:00,86.3,65.5,29.92,SW,230,5.0,6.0,50,0.00,,CLR,0.00,754.00,VWS V14.01,2013-07-20 20:59:00,
2013-07-20 16:04:00,86.3,67.7,29.92,WSW,237,4.0,5.0,54,0.00,,CLR,0.00,747.00,VWS V14.01,2013-07-20 21:04:00,
2013-07-20 16:10:00,86.2,64.2,29.91,WSW,240,0.0,3.0,48,0.00,,CLR,0.00,733.00,VWS V14.01,2013-07-20 21:10:00,
2013-07-20 16:15:00,86.2,66.5,29.91,WSW,257,0.0,3.0,52,0.00,,CLR,0.00,722.00,VWS V14.01,2013-07-20 21:15:00,
2013-07-20 16:20:00,86.4,67.3,29.91,WSW,254,3.0,4.0,53,0.00,,CLR,0.00,708.00,VWS V14.01,2013-07-20 21:20:00,
2013-07-20 16:25:00,86.3,66.6,29.91,West,265,4.0,7.0,52,0.00,,CLR,0.00,700.00,VWS V14.01,2013-07-20 21:25:00,
2013-07-20 16:30:00,86.8,68.2,29.91,North,5,4.0,4.0,54,0.00,,CLR,0.00,687.00,VWS V14.01,2013-07-20 21:30:00,
2013-07-20 16:35:00,86.9,67.2,29.91,West,270,2.0,4.0,52,0.00,,CLR,0.00,687.00,VWS V14.01,2013-07-20 21:35:00,
2013-07-20 16:40:00,86.9,66.0,29.91,WNW,299,2.0,5.0,50,0.00,,CLR,0.00,684.00,VWS V14.01,2013-07-20 21:40:00,
2013-07-20 16:45:00,87.1,67.4,29.91,West,259,3.0,6.0,52,0.00,,CLR,0.00,705.00,VWS V14.01,2013-07-20 21:45:00,
2013-07-20 16:51:00,86.6,65.2,29.91,WSW,251,3.0,4.0,49,0.00,,CLR,0.00,591.00,VWS V14.01,2013-07-20 21:51:00,
2013-07-20 16:56:00,86.5,64.5,29.90,WSW,249,2.0,5.0,48,0.00,,CLR,0.00,705.00,VWS V14.01,2013-07-20 21:56:00,
2013-07-20 17:01:00,85.3,66.8,29.90,SW,219,2.0,3.0,54,0.00,,CLR,0.00,276.00,VWS V14.01,2013-07-20 22:01:00,
2013-07-20 17:06:00,85.8,67.2,29.90,SSW,208,4.0,4.0,54,0.00,,CLR,0.00,585.00,VWS V14.01,2013-07-20 22:06:00,
2013-07-20 17:11:00,86.1,67.5,29.90,South,190,2.0,5.0,54,0.00,,CLR,0.00,464.00,VWS V14.01,2013-07-20 22:11:00,
2013-07-20 17:16:00,85.5,68.0,29.90,SW,235,3.0,5.0,56,0.00,,CLR,0.00,383.00,VWS V14.01,2013-07-20 22:16:00,
2013-07-20 17:21:00,84.8,68.9,29.90,SSW,207,2.0,5.0,59,0.00,,CLR,0.00,392.00,VWS V14.01,2013-07-20 22:21:00,
2013-07-20 17:26:00,85.4,68.4,29.89,SW,216,3.0,4.0,57,0.00,,CLR,0.00,510.00,VWS V14.01,2013-07-20 22:26:00,
2013-07-20 17:31:00,85.3,68.3,29.90,SW,217,4.0,5.0,57,0.00,,CLR,0.00,410.00,VWS V14.01,2013-07-20 22:31:00,
2013-07-20 17:36:00,84.8,67.9,29.89,SSW,212,4.0,5.0,57,0.00,,CLR,0.00,302.00,VWS V14.01,2013-07-20 22:36:00,
2013-07-20 17:41:00,84.7,69.3,29.89,SW,216,4.0,4.0,60,0.00,,CLR,0.00,446.00,VWS V14.01,2013-07-20 22:41:00,
2013-07-20 17:46:00,84.3,67.4,29.89,SW,232,3.0,4.0,57,0.00,,CLR,0.00,248.00,VWS V14.01,2013-07-20 22:46:00,
2013-07-20 17:52:00,83.5,68.7,29.89,SW,231,1.0,4.0,61,0.00,,CLR,0.00,199.00,VWS V14.01,2013-07-20 22:52:00,
2013-07-20 17:56:00,83.0,67.2,29.89,SW,231,0.0,0.0,59,0.00,,CLR,0.00,158.00,VWS V14.01,2013-07-20 22:56:00,
2013-07-20 18:02:00,82.6,67.8,29.88,SW,231,0.0,0.0,61,0.00,,CLR,0.00,141.00,VWS V14.01,2013-07-20 23:02:00,
2013-07-20 18:07:00,82.1,68.7,29.88,SW,231,0.0,0.0,64,0.00,,CLR,0.00,146.00,VWS V14.01,2013-07-20 23:07:00,
2013-07-20 18:12:00,81.8,68.4,29.88,SW,231,0.0,0.0,64,0.00,,CLR,0.00,171.00,VWS V14.01,2013-07-20 23:12:00,
2013-07-20 18:17:00,82.2,66.9,29.88,SW,231,0.0,1.0,60,0.00,,CLR,0.00,206.00,VWS V14.01,2013-07-20 23:17:00,
2013-07-20 18:22:00,82.3,69.4,29.88,SW,231,0.0,0.0,65,0.00,,CLR,0.00,172.00,VWS V14.01,2013-07-20 23:22:00,
2013-07-20 18:27:00,82.2,71.9,29.88,SW,231,0.0,0.0,71,0.00,,CLR,0.00,162.00,VWS V14.01,2013-07-20 23:27:00,
2013-07-20 18:32:00,82.1,73.0,29.89,SW,231,1.0,2.0,74,0.00,,CLR,0.00,176.00,VWS V14.01,2013-07-20 23:32:00,
2013-07-20 18:37:00,82.0,72.9,29.89,SW,231,0.0,1.0,74,0.00,,CLR,0.00,192.00,VWS V14.01,2013-07-20 23:37:00,
2013-07-20 18:42:00,82.2,71.9,29.89,SW,231,0.0,0.0,71,0.00,,CLR,0.00,153.00,VWS V14.01,2013-07-20 23:42:00,
2013-07-20 18:47:00,82.2,71.0,29.89,SW,231,0.0,1.0,69,0.00,,CLR,0.00,127.00,VWS V14.01,2013-07-20 23:47:00,
2013-07-20 18:53:00,82.0,72.1,29.89,SW,231,0.0,1.0,72,0.00,,CLR,0.00,118.00,VWS V14.01,2013-07-20 23:53:00,
2013-07-20 18:58:00,81.8,68.4,29.89,SW,231,0.0,0.0,64,0.00,,CLR,0.00,113.00,VWS V14.01,2013-07-20 23:58:00,
2013-07-20 19:03:00,81.6,68.2,29.89,SW,231,0.0,1.0,64,0.00,,CLR,0.00,111.00,VWS V14.01,2013-07-21 00:03:00,
2013-07-20 19:08:00,81.2,66.9,29.89,SW,231,0.0,1.0,62,0.00,,CLR,0.00,100.00,VWS V14.01,2013-07-21 00:08:00,
2013-07-20 19:13:00,81.2,66.5,29.89,SW,231,0.0,0.0,61,0.00,,CLR,0.00,91.00,VWS V14.01,2013-07-21 00:13:00,
2013-07-20 19:18:00,81.2,69.6,29.89,SW,231,0.0,1.0,68,0.00,,CLR,0.00,84.00,VWS V14.01,2013-07-21 00:18:00,
2013-07-20 19:24:00,80.9,71.4,29.89,SW,231,0.0,0.0,73,0.00,,CLR,0.00,79.00,VWS V14.01,2013-07-21 00:24:00,
2013-07-20 19:29:00,80.4,71.4,29.90,SW,231,0.0,1.0,74,0.00,,CLR,0.00,84.00,VWS V14.01,2013-07-21 00:29:00,
2013-07-20 19:34:00,80.8,69.3,29.90,SW,232,1.0,1.0,68,0.00,,CLR,0.00,76.00,VWS V14.01,2013-07-21 00:34:00,
2013-07-20 19:39:00,81.1,69.6,29.90,SW,232,1.0,1.0,68,0.00,,CLR,0.00,74.00,VWS V14.01,2013-07-21 00:39:00,
2013-07-20 19:44:00,81.3,69.7,29.90,North,360,0.0,3.0,68,0.00,,CLR,0.00,74.00,VWS V14.01,2013-07-21 00:44:00,
2013-07-20 19:49:00,81.2,70.1,29.90,North,360,2.0,2.0,69,0.00,,CLR,0.00,70.00,VWS V14.01,2013-07-21 00:49:00,
2013-07-20 19:54:00,81.3,70.2,29.90,North,360,0.0,2.0,69,0.00,,CLR,0.00,60.00,VWS V14.01,2013-07-21 00:54:00,
2013-07-20 20:00:00,80.8,71.3,29.90,North,360,0.0,0.0,73,0.00,,CLR,0.00,35.00,VWS V14.01,2013-07-21 01:00:00,
2013-07-20 20:05:00,80.1,71.5,29.90,North,360,0.0,0.0,75,0.00,,CLR,0.00,23.00,VWS V14.01,2013-07-21 01:05:00,
2013-07-20 20:10:00,79.5,70.9,29.90,North,360,0.0,0.0,75,0.00,,CLR,0.00,19.00,VWS V14.01,2013-07-21 01:10:00,
2013-07-20 20:15:00,78.9,71.1,29.90,North,360,0.0,0.0,77,0.00,,CLR,0.00,18.00,VWS V14.01,2013-07-21 01:15:00,
2013-07-20 20:20:00,78.6,71.2,29.90,North,360,0.0,1.0,78,0.00,,CLR,0.00,14.00,VWS V14.01,2013-07-21 01:20:00,
2013-07-20 20:25:00,78.2,70.0,29.90,North,360,0.0,1.0,76,0.00,,CLR,0.00,11.00,VWS V14.01,2013-07-21 01:25:00,
2013-07-20 20:30:00,77.9,68.9,29.90,North,360,0.0,0.0,74,0.00,,CLR,0.00,7.00,VWS V14.01,2013-07-21 01:30:00,
2013-07-20 20:36:00,77.6,68.7,29.90,North,360,0.0,0.0,74,0.00,,CLR,0.00,5.00,VWS V14.01,2013-07-21 01:36:00,
2013-07-20 20:41:00,77.4,69.2,29.90,North,360,1.0,1.0,76,0.00,,CLR,0.00,0.00,VWS V14.01,2013-07-21 01:41:00,
2013-07-20 20:46:00,77.0,69.6,29.90,North,360,2.0,2.0,78,0.00,,CLR,0.00,0.00,VWS V14.01,2013-07-21 01:46:00,
2013-07-20 20:51:00,76.5,69.1,29.90,North,360,1.0,1.0,78,0.00,,CLR,0.00,0.00,VWS V14.01,2013-07-21 01:51:00,
2013-07-20 20:56:00,76.4,69.0,29.90,North,10,1.0,2.0,78,0.00,,CLR,0.00,0.00,VWS V14.01,2013-07-21 01:56:00,
2013-07-20 21:01:00,76.5,69.1,29.90,North,10,0.0,2.0,78,0.00,,CLR,0.00,0.00,VWS V14.01,2013-07-21 02:01:00,
2013-07-20 21:06:00,76.6,68.9,29.91,North,10,0.0,0.0,77,0.00,,CLR,0.00,0.00,VWS V14.01,2013-07-21 02:06:00,
2013-07-20 21:11:00,76.2,68.5,29.91,North,10,0.0,0.0,77,0.00,,CLR,0.00,0.00,VWS V14.01,2013-07-21 02:11:00,
2013-07-20 21:16:00,75.8,68.1,29.91,North,10,0.0,1.0,77,0.00,,CLR,0.00,0.00,VWS V14.01,2013-07-21 02:16:00,
2013-07-20 21:21:00,75.3,68.0,29.91,North,10,0.0,0.0,78,0.00,,CLR,0.00,0.00,VWS V14.01,2013-07-21 02:21:00,
2013-07-20 21:26:00,74.7,68.1,29.91,North,10,0.0,0.0,80,0.00,,CLR,0.00,0.00,VWS V14.01,2013-07-21 02:26:00,
2013-07-20 21:31:00,74.4,67.8,29.92,North,10,0.0,1.0,80,0.00,,CLR,0.00,0.00,VWS V14.01,2013-07-21 02:31:00,
2013-07-20 21:36:00,74.5,68.3,29.91,North,10,1.0,1.0,81,0.00,,CLR,0.00,0.00,VWS V14.01,2013-07-21 02:36:00,
2013-07-20 21:41:00,74.3,67.4,29.92,North,10,0.0,1.0,79,0.00,,CLR,0.00,0.00,VWS V14.01,2013-07-21 02:41:00,
2013-07-20 21:46:00,74.7,66.6,29.92,North,10,0.0,2.0,76,0.00,,CLR,0.00,0.00,VWS V14.01,2013-07-21 02:46:00,
2013-07-20 21:51:00,75.2,66.7,29.92,North,10,1.0,1.0,75,0.00,,CLR,0.00,0.00,VWS V14.01,2013-07-21 02:51:00,
2013-07-20 21:56:00,75.5,66.6,29.92,North,10,0.0,1.0,74,0.00,,CLR,0.00,0.00,VWS V14.01,2013-07-21 02:56:00,
2013-07-20 22:01:00,75.6,66.3,29.92,North,10,0.0,1.0,73,0.00,,CLR,0.00,0.00,VWS V14.01,2013-07-21 03:01:00,
2013-07-20 22:06:00,75.4,66.5,29.92,North,10,0.0,1.0,74,0.00,,CLR,0.00,0.00,VWS V14.01,2013-07-21 03:06:00,
2013-07-20 22:11:00,75.6,66.3,29.92,North,10,0.0,1.0,73,0.00,,CLR,0.00,0.00,VWS V14.01,2013-07-21 03:11:00,
2013-07-20 22:16:00,75.5,65.8,29.92,North,10,0.0,0.0,72,0.00,,CLR,0.00,0.00,VWS V14.01,2013-07-21 03:16:00,
2013-07-20 22:21:00,75.3,65.7,29.92,North,10,0.0,1.0,72,0.00,,CLR,0.00,0.00,VWS V14.01,2013-07-21 03:21:00,
2013-07-20 22:26:00,75.1,65.5,29.92,North,10,0.0,0.0,72,0.00,,CLR,0.00,0.00,VWS V14.01,2013-07-21 03:26:00,
2013-07-20 22:31:00,75.1,65.1,29.93,North,10,0.0,1.0,71,0.00,,CLR,0.00,0.00,VWS V14.01,2013-07-21 03:31:00,
2013-07-20 22:36:00,75.1,65.1,29.93,North,10,0.0,0.0,71,0.00,,CLR,0.00,0.00,VWS V14.01,2013-07-21 03:36:00,
2013-07-20 22:41:00,74.6,65.4,29.93,North,10,1.0,2.0,73,0.00,,CLR,0.00,0.00,VWS V14.01,2013-07-21 03:41:00,
2013-07-20 22:47:00,72.7,65.8,29.94,North,10,1.0,2.0,79,0.00,,CLR,0.00,0.00,VWS V14.01,2013-07-21 03:47:00,
2013-07-20 22:52:00,72.2,66.1,29.94,North,10,0.0,0.0,81,0.00,,CLR,0.00,0.00,VWS V14.01,2013-07-21 03:52:00,
2013-07-20 22:57:00,72.6,65.7,29.94,North,10,0.0,0.0,79,0.00,,CLR,0.00,0.00,VWS V14.01,2013-07-21 03:57:00,
2013-07-20 23:01:00,72.9,65.3,29.94,North,10,0.0,0.0,77,0.00,,CLR,0.00,0.00,VWS V14.01,2013-07-21 04:01:00,
2013-07-20 23:06:00,73.4,64.6,29.94,North,10,0.0,1.0,74,0.00,,CLR,0.00,0.00,VWS V14.01,2013-07-21 04:06:00,
2013-07-20 23:11:00,73.8,64.2,29.94,North,10,1.0,1.0,72,0.00,,CLR,0.00,0.00,VWS V14.01,2013-07-21 04:11:00,
2013-07-20 23:16:00,74.0,64.0,29.94,North,10,1.0,1.0,71,0.00,,CLR,0.00,0.00,VWS V14.01,2013-07-21 04:16:00,
2013-07-20 23:21:00,74.2,64.2,29.94,North,10,0.0,1.0,71,0.00,,CLR,0.00,0.00,VWS V14.01,2013-07-21 04:21:00,
2013-07-20 23:26:00,74.2,63.8,29.94,North,10,0.0,0.0,70,0.00,,CLR,0.00,0.00,VWS V14.01,2013-07-21 04:26:00,
2013-07-20 23:31:00,73.5,63.9,29.94,North,10,0.0,0.0,72,0.00,,CLR,0.00,0.00,VWS V14.01,2013-07-21 04:31:00,
2013-07-20 23:36:00,71.9,63.9,29.94,North,10,0.0,0.0,76,0.00,,CLR,0.00,0.00,VWS V14.01,2013-07-21 04:36:00,
2013-07-20 23:41:00,71.3,64.5,29.94,North,10,0.0,1.0,79,0.00,,CLR,0.00,0.00,VWS V14.01,2013-07-21 04:41:00,
2013-07-20 23:46:00,70.9,64.1,29.94,North,10,0.0,0.0,79,0.00,,CLR,0.00,0.00,VWS V14.01,2013-07-21 04:46:00,
2013-07-20 23:51:00,71.1,63.9,29.94,North,10,0.0,0.0,78,0.00,,CLR,0.00,0.00,VWS V14.01,2013-07-21 04:51:00,
2013-07-20 23:57:00,71.3,63.7,29.94,North,10,0.0,0.0,77,0.00,,CLR,0.00,0.00,VWS V14.01,2013-07-21 04:57:00,